Overview Statistics Trail Chart Weather Telemetry Raw packets
 

This is the latest recevied weather packets stored in our database for station/object Seibranz. If no packets are shown the sender has not sent any weather packets the latest 10 day(s).

<< 5 6 7 8 9 10 11 >>
Time Temp. Humidity Pressure Rain* Wind** Luminosity Snow
1788265930 21.67° C 60% 1020.4 hPa 0 mm - - -
1788264131 20.56° C 65% 1020.5 hPa 0 mm - - -
1788262331 19.44° C 69% 1020.5 hPa 0 mm - - -
1788260531 19.44° C 71% 1020.6 hPa 0 mm - - -
1788258730 18.89° C 73% 1020.6 hPa 0 mm - - -
1788256930 18.89° C 70% 1021 hPa 0 mm - - -
1788255130 17.78° C 76% 1021.1 hPa 0 mm - - -
1788253331 18.33° C 71% 1021 hPa 0 mm - - -
1788251530 18.33° C 72% 1021.1 hPa 0 mm - - -
1788249730 17.78° C 77% 1020.8 hPa 0 mm - - -
1788247930 16.67° C 80% 1020.7 hPa 0 mm - - -
1788246130 16.11° C 79% 1020.6 hPa 0 mm - - -
1788244330 15.56° C 80% 1020.7 hPa 0 mm - - -
1788242531 15° C 84% 1020.6 hPa 0 mm - - -
1788240729 11.67° C 91% 1020.6 hPa 0 mm - - -
1788238929 9.44° C 92% 1020.5 hPa 0 mm - - -
1788237130 10° C 90% 1020.3 hPa 0 mm - - -
1788235330 10.56° C 91% 1020.3 hPa 0 mm - - -
1788233529 11.67° C 89% 1020.4 hPa 0 mm - - -
1788231729 10.56° C 90% 1020.4 hPa 0 mm - - -
1788229930 10° C 88% 1020.6 hPa 0 mm - - -
1788228129 10.56° C 89% 1020.6 hPa 0 mm - - -
1788226329 10.56° C 88% 1020.4 hPa 0 mm - - -
1788224529 10.56° C 87% 1020.4 hPa 0 mm - - -
1788222731 11.11° C 83% 1020.1 hPa 0 mm - - -

* Rain since midnight (hover to see other rain measurements)
** Current wind speed in m/s (hover to see current wind gust speed)